Flag for Reunion (French) Weather past 2 weeks in Saint-Denis, Reunion (French)

Now
68 °F

Overcast.


Feels Like: 68 °F
Forecast: 68 / 76 °F
Wind: 5 mph from South

Location: Saint-Denis / Gillot

Current Time: Sep 5, 2015 at 1:04:56 AM

Latest Report: Sep 5, 2015 at 12:30 AM


Visibility: N/A

Pressure: 30.12 "Hg

Humidity: 88%

Dew point: 64 °F

Location of Saint-DenisLocation

Historic Weather in Saint-Denis — Graph

°F

Saint-Denis temperature yesterday

Maximum temperature yesterday: 79 °F (at 9:30 AM)
Minimum temperature yesterday: 64 °F (at 4:00 AM)
Average temperature yesterday: 72 °F

Past Weeks' High & Low Weather Summary

 TemperatureHumidityPressure
High81 °F (Aug 31, 12:00 PM)88% (Aug 25, 2:30 PM)30.27 "Hg (Aug 25, 2:30 PM)
Low61 °F (Aug 22, 5:00 AM)41% (Aug 27, 9:30 AM)30.07 "Hg (Sep 4, 3:00 PM)
Average71 °F65%30.18 "Hg
* Reported Midnight between Aug 20 and Aug 21 — Midnight between Sep 4 and Sep 5, Saint-Denis, Weather by CustomWeather, © 2015

Note: Actual official high and low records may vary slightly from our data, if they occured in-between our weather recording intervals... More about our weather records

Advertising

Saint-Denis weather history for previous 24 hours

 ConditionsComfort  
Time TempWeatherWind HumidityBarometerVisibility
12:00 AM
Sat, Sep 5
68 °FMostly cloudy.6 mph88%30.15 "HgN/A
11:30 PM
Fri, Sep 4
68 °FPassing clouds.6 mph88%30.15 "HgN/A
11:00 PM68 °FClear.3 mph88%30.15 "HgN/A
10:30 PM70 °FPassing clouds.3 mph88%30.15 "HgN/A
10:00 PM70 °FMostly cloudy.2 mph88%30.15 "HgN/A
9:30 PM70 °FOvercast.5 mph88%30.15 "HgN/A
9:00 PM70 °FLight rain. Fog.3 mph88%30.15 "Hg3 mi
8:30 PM70 °FLight rain. Passing clouds.10 mph83%30.15 "Hg6 mi
8:00 PM72 °FMostly cloudy.6 mph78%30.15 "HgN/A
7:30 PM72 °FPassing clouds.3 mph78%30.12 "HgN/A
7:00 PM72 °FMostly cloudy.7 mph73%30.12 "HgN/A
6:30 PM73 °FOvercast.6 mph74%30.09 "HgN/A
6:00 PM73 °FMostly cloudy.5 mph78%30.09 "HgN/A
5:30 PM73 °FPassing clouds.7 mph78%30.09 "HgN/A
5:00 PM75 °FPartly sunny.7 mph74%30.09 "HgN/A
4:30 PM75 °FBroken clouds.7 mph74%30.07 "HgN/A
4:00 PM75 °FBroken clouds.7 mph69%30.07 "HgN/A
3:30 PM75 °FPartly sunny.8 mph74%30.07 "HgN/A
3:00 PM75 °FPartly sunny.8 mph69%30.07 "HgN/A
2:30 PM75 °FPartly sunny.7 mph69%30.09 "HgN/A
2:00 PM77 °FPartly sunny.8 mph65%30.09 "HgN/A
1:30 PM77 °FPartly sunny.7 mph69%30.09 "HgN/A
1:00 PM77 °FScattered clouds.6 mph65%30.09 "HgN/A
12:30 PM77 °FScattered clouds.7 mph69%30.12 "HgN/A
12:00 PM75 °FScattered clouds.6 mph69%30.12 "HgN/A
11:30 AM79 °FScattered clouds.8 mph65%30.15 "HgN/A
11:00 AM79 °FPassing clouds.6 mph65%30.15 "HgN/A
10:30 AM79 °FPassing clouds.8 mph65%30.15 "HgN/A
10:00 AM79 °FPassing clouds.12 mph65%30.15 "HgN/A
9:30 AM79 °FPassing clouds.1 mph48%30.15 "HgN/A
9:00 AM77 °FPassing clouds.5 mph54%30.15 "HgN/A
8:30 AM75 °FPassing clouds.8 mph61%30.15 "HgN/A
8:00 AM73 °FPassing clouds.9 mph65%30.15 "HgN/A
7:00 AM66 °FPassing clouds.5 mph68%30.15 "HgN/A
6:30 AM64 °FScattered clouds.3 mph73%30.15 "HgN/A
6:00 AM66 °FScattered clouds.6 mph68%30.15 "HgN/A
5:30 AM66 °FOvercast.5 mph68%30.12 "HgN/A
5:00 AM66 °FPassing clouds.6 mph68%30.12 "HgN/A
4:30 AM66 °FPassing clouds.2 mph68%30.12 "HgN/A
4:00 AM64 °FClear.6 mph68%30.12 "HgN/A
3:30 AM66 °FClear.5 mph68%30.12 "HgN/A
3:00 AM66 °FClear.8 mph68%30.12 "HgN/A
2:30 AM66 °FClear.3 mph68%30.12 "HgN/A
2:00 AM68 °FClear.1 mph64%30.12 "HgN/A
1:00 AM66 °FClear.1 mph64%30.15 "HgN/A
Weather by CustomWeather, © 2015

See weather overviewHow to use our weather pages